Regional Weather Roundup
Issued by NWS Green Bay, WI

Home | Current Version | Previous Version | Text Only | Print | Product List | Glossary On
Versions: 1 2 3 4 5 6 7 8 9 10 11 12 13 14 15 16 17 18 19 20 21 22 23 24 25 26 27 28 29 30 31 32 33 34 35 36 37 38 39 40 41 42 43 44 45 46 47 48 49 50
513
ASUS43 KGRB 202311
RWRGRB

NORTH-CENTRAL AND NORTHEAST WISCONSIN REGIONAL WEATHER ROUNDUP
NATIONAL WEATHER SERVICE GREEN BAY WI
600 PM CDT SUN AUG 20 2017

WIZ005-009-010>012-018-019-210000-
NORTH CENTRAL WISCONSIN

CITY           SKY/WX    TMP DP  RH WIND       PRES   REMARKS
IRONWOOD       CLOUDY    74  67  78 W3        29.93R
MANITOWISH WTR MOSUNNY   77  67  71 SW8       29.94S
ARBOR VITAE    SUNNY     78  68  70 SW9       29.95R
EAGLE RIVER    SUNNY     78  64  63 W13       29.94S
LAND O LAKES   MOSUNNY   79  65  62 SW6       29.95R
RHINELANDER    MOSUNNY   78  67  68 W13       29.97R
PHILLIPS       CLOUDY    77  69  76 W7        29.95S
ANTIGO         PTSUNNY   79  65  61 W10G16    29.97S
TOMAHAWK         N/A     78  66  66 W3        29.97R
MERRILL        MOSUNNY   81  66  61 W9G17     29.96R
$$

WIZ013-073-210000-
NORTHEAST WISCONSIN

CITY           SKY/WX    TMP DP  RH WIND       PRES   REMARKS
IRON MOUNTAIN  SUNNY     82  65  56 SW5       29.90S
MARINETTE      NOT AVBL
OCONTO         MOSUNNY   79  68  69 SW8       29.93S
$$

WIZ017-030-035>037-045-210000-
CENTRAL WISCONSIN

CITY           SKY/WX    TMP DP  RH WIND       PRES   REMARKS
MEDFORD        SUNNY     78  66  66 SW8       29.97R
WAUSAU         SUNNY     80  65  59 SW10      29.95R
MOSINEE        MOSUNNY   81  64  57 SW10      29.98S
MARSHFIELD     MOSUNNY   80  64  58 SW9       29.97R
WISC RAPIDS    PTSUNNY   82  66  58 SW8       29.99R
STEVENS POINT  PTSUNNY   80  65  60 SW9       29.98S
WAUPACA        MOSUNNY   82  66  58 SW6       29.97S
SHAWANO        SUNNY     82  68  63 SW5       29.95S
CLINTONVILLE   PTSUNNY   81  64  57 SW9       29.95S
WAUTOMA        SUNNY     81  68  64 SW7       29.98R
$$

WIZ038-039-048-051-210000-
FOX VALLEY

CITY           SKY/WX    TMP DP  RH WIND       PRES   REMARKS
NWS GREEN BAY  CLOUDY    79  71  76 S7        29.95F
APPLETON       MOSUNNY   79  64  61 SW8       29.96S
OSHKOSH        PTSUNNY   79  68  69 S8        29.97S
FOND DU LAC    PTSUNNY   80  65  59 SW6       29.99R
$$

WIZ022-050-052-210000-
EAST CENTRAL WISCONSIN

CITY           SKY/WX    TMP DP  RH WIND       PRES   REMARKS
EPHRAIM        FAIR      74  66  77 SW9       29.93F
WASHINGTON ISL CLOUDY    71  66  83 S12       29.92F
STURGEON BAY   PTSUNNY   75  68  78 S10       29.95S
MANITOWOC      CLOUDY    75  67  76 S8        29.98S
SHEBOYGAN      PTSUNNY   78  71  79 S8        29.98F
$$

LMZ563-521-522-541>543-210000-
LAKESHORE

STATION/POSITION TIME  TEMP    WIND        PRES    VSBY  WAVE
                       AIR SEA DIR/SP/G                  HT/PER
                 (UTC) (F)     (DEG/KT/KT) (MB)    (MI)  (FT/S)
SHEBOYGAN LKSHOR 2300   72     180/ 16/ 18 1014.7F
KEWAUNEE LKSHORE 2242   69     180/ 11/ 12 1013.9F
NORTHPORT PIER   2240   73     180/  6/ 12 1013.2S
N MID LAKE BUOY  2250   69 68  190/ 17/ 21 1013.8F         3/ 4
S GREEN BAY BUOY 2300   75 72  210/ 12/ 14 1013.6
SISTER BAY LKSHO 2303   76     180/ 13/ 16   N/A
MENOMINEE LKSHOR 2242   78     190/ 11/ 15 1013.1F
$$




USA.gov is the U.S. government's official web portal to all federal, state and local government web resources and services.